AAL2767 KLAX-KDFW

Flight info

Callsign AAL2767
Flight time N/A
Altitude 37000
Route DOTSS2 CNERY BLH J169 TFD J50 SSO J4 INK GEEKY BOOVE7
Aircraft A21N/M-SDE2E3FGHIRWXY/LB1

Departure

Time 2026-04-24 02:23
Airport Los Angeles International Airport (KLAX)

Arrival

Time N/A
Airport Dallas Fort Worth International Airport (KDFW)
Time Latitude Longitude Altitude Speed Heading
2026-04-24 01:20 33.93956 -118.40591 132 ft 0 kts 318°
2026-04-24 01:53 33.93956 -118.40590 132 ft 0 kts 318°
2026-04-24 02:10 33.93946 -118.40580 132 ft 2 kts 318°
2026-04-24 02:10 33.93936 -118.40569 132 ft 2 kts 319°
2026-04-24 02:11 33.93926 -118.40558 132 ft 1 kts 319°
2026-04-24 02:11 33.93920 -118.40551 132 ft 1 kts 287°
2026-04-24 02:11 33.93921 -118.40541 131 ft 1 kts 226°
2026-04-24 02:11 33.93927 -118.40537 131 ft 0 kts 186°
2026-04-24 02:12 33.93928 -118.40537 131 ft 0 kts 186°
2026-04-24 02:13 33.93917 -118.40540 131 ft 2 kts 195°
2026-04-24 02:13 33.93908 -118.40537 131 ft 0 kts 152°
2026-04-24 02:14 33.93907 -118.40537 131 ft 0 kts 148°
2026-04-24 02:15 33.93901 -118.40535 131 ft 3 kts 169°
2026-04-24 02:15 33.93852 -118.40527 132 ft 10 kts 169°
2026-04-24 02:15 33.93831 -118.40447 130 ft 13 kts 84°
2026-04-24 02:16 33.93846 -118.40324 127 ft 16 kts 83°
2026-04-24 02:16 33.93860 -118.40170 124 ft 20 kts 83°
2026-04-24 02:16 33.93879 -118.39991 122 ft 23 kts 83°
2026-04-24 02:16 33.93898 -118.39796 120 ft 23 kts 83°
2026-04-24 02:17 33.93919 -118.39598 116 ft 25 kts 83°
2026-04-24 02:17 33.93940 -118.39395 113 ft 24 kts 83°
2026-04-24 02:17 33.93961 -118.39192 111 ft 24 kts 83°
2026-04-24 02:17 33.93981 -118.38990 109 ft 23 kts 83°
2026-04-24 02:18 33.94001 -118.38795 108 ft 23 kts 82°
2026-04-24 02:18 33.94022 -118.38603 107 ft 22 kts 84°
2026-04-24 02:18 33.94041 -118.38417 106 ft 22 kts 83°
2026-04-24 02:18 33.94059 -118.38238 105 ft 17 kts 84°
2026-04-24 02:19 33.94073 -118.38090 104 ft 15 kts 83°
2026-04-24 02:19 33.94071 -118.38021 103 ft 0 kts 120°
2026-04-24 02:21 33.94065 -118.38013 103 ft 3 kts 143°
2026-04-24 02:21 33.94019 -118.38008 103 ft 9 kts 196°
2026-04-24 02:21 33.93982 -118.38054 103 ft 0 kts 261°
2026-04-24 02:22 33.93974 -118.38116 103 ft 33 kts 261°
2026-04-24 02:22 33.93912 -118.38708 108 ft 105 kts 263°
2026-04-24 02:22 33.93803 -118.39829 122 ft 161 kts 262°
2026-04-24 02:23 33.93653 -118.41229 544 ft 174 kts 263°
2026-04-24 02:23 33.93498 -118.42703 1105 ft 185 kts 263°
2026-04-24 02:23 33.93338 -118.44280 1590 ft 200 kts 263°
2026-04-24 02:23 33.92969 -118.45968 2005 ft 219 kts 246°
2026-04-24 02:24 33.92099 -118.47580 2381 ft 241 kts 234°
2026-04-24 02:24 33.91031 -118.49196 3080 ft 249 kts 232°
2026-04-24 02:24 33.89904 -118.50804 3851 ft 254 kts 231°
2026-04-24 02:24 33.88739 -118.52432 4477 ft 264 kts 231°
2026-04-24 02:25 33.87345 -118.53895 5055 ft 277 kts 206°
2026-04-24 02:25 33.85461 -118.54329 5825 ft 281 kts 176°
2026-04-24 02:25 33.83540 -118.53977 6631 ft 283 kts 168°
2026-04-24 02:25 33.81592 -118.53520 7399 ft 287 kts 171°
2026-04-24 02:26 33.79627 -118.53156 8142 ft 290 kts 174°
2026-04-24 02:26 33.77590 -118.52876 8906 ft 293 kts 176°
2026-04-24 02:26 33.75569 -118.52650 9648 ft 296 kts 178°
2026-04-24 02:26 33.73512 -118.52442 10359 ft 299 kts 179°
2026-04-24 02:27 33.71421 -118.51929 10739 ft 320 kts 159°
2026-04-24 02:27 33.69539 -118.50341 11030 ft 342 kts 134°
2026-04-24 02:27 33.68306 -118.47857 11322 ft 361 kts 111°
2026-04-24 02:27 33.67518 -118.44964 11866 ft 369 kts 109°
2026-04-24 02:28 33.66719 -118.42059 12484 ft 374 kts 109°
2026-04-24 02:28 33.65860 -118.39059 13092 ft 380 kts 110°
2026-04-24 02:28 33.65035 -118.36045 13702 ft 385 kts 105°
2026-04-24 02:28 33.64526 -118.32893 14301 ft 389 kts 96°
2026-04-24 02:29 33.64386 -118.29618 14924 ft 393 kts 90°
2026-04-24 02:29 33.64391 -118.26325 15516 ft 397 kts 89°
2026-04-24 02:29 33.64421 -118.23025 16097 ft 401 kts 89°
2026-04-24 02:29 33.64447 -118.19653 16638 ft 405 kts 89°
2026-04-24 02:30 33.64462 -118.16270 16921 ft 408 kts 89°
2026-04-24 02:30 33.64468 -118.12857 16957 ft 407 kts 89°
2026-04-24 02:30 33.64468 -118.09485 16961 ft 406 kts 89°
2026-04-24 02:30 33.64467 -118.06122 16961 ft 406 kts 89°
2026-04-24 02:31 33.64464 -118.02741 16961 ft 406 kts 89°
2026-04-24 02:31 33.64460 -117.99350 16962 ft 406 kts 89°
2026-04-24 02:31 33.64454 -117.95931 16964 ft 407 kts 89°
2026-04-24 02:31 33.64448 -117.92527 17042 ft 411 kts 89°
2026-04-24 02:32 33.64441 -117.89115 17511 ft 415 kts 89°
2026-04-24 02:32 33.64433 -117.85624 18186 ft 416 kts 89°
2026-04-24 02:32 33.64387 -117.82179 18769 ft 418 kts 93°
2026-04-24 02:32 33.64068 -117.78692 19297 ft 422 kts 99°
2026-04-24 02:33 33.63418 -117.75246 19824 ft 424 kts 106°
2026-04-24 02:33 33.62593 -117.71839 20348 ft 427 kts 108°
2026-04-24 02:33 33.61734 -117.68449 20830 ft 431 kts 108°
2026-04-24 02:33 33.60854 -117.64974 21317 ft 435 kts 108°
2026-04-24 02:34 33.59976 -117.61478 21800 ft 438 kts 107°
2026-04-24 02:34 33.59111 -117.58009 22267 ft 441 kts 107°
2026-04-24 02:34 33.58224 -117.54443 22698 ft 445 kts 107°
2026-04-24 02:34 33.57339 -117.50874 23146 ft 448 kts 107°
2026-04-24 02:35 33.56450 -117.47285 23589 ft 451 kts 107°
2026-04-24 02:35 33.55557 -117.43685 24033 ft 454 kts 107°
2026-04-24 02:35 33.54656 -117.40060 24441 ft 457 kts 107°
2026-04-24 02:35 33.53739 -117.36374 24843 ft 460 kts 107°
2026-04-24 02:36 33.52829 -117.32724 25214 ft 464 kts 108°
2026-04-24 02:36 33.51897 -117.28991 25588 ft 466 kts 108°
2026-04-24 02:36 33.51066 -117.25208 25945 ft 470 kts 103°
2026-04-24 02:36 33.50544 -117.21406 26294 ft 473 kts 97°
2026-04-24 02:37 33.50331 -117.17462 26647 ft 475 kts 91°
2026-04-24 02:37 33.50273 -117.13519 26977 ft 477 kts 90°
2026-04-24 02:37 33.50246 -117.09523 27289 ft 480 kts 90°
2026-04-24 02:37 33.50217 -117.05505 27608 ft 482 kts 90°
2026-04-24 02:38 33.50178 -117.01450 27909 ft 485 kts 91°
2026-04-24 02:38 33.50131 -116.97414 28213 ft 487 kts 91°
2026-04-24 02:38 33.50077 -116.93364 28503 ft 489 kts 91°
2026-04-24 02:38 33.50016 -116.89308 28765 ft 492 kts 91°
2026-04-24 02:39 33.49954 -116.85191 29139 ft 491 kts 91°
2026-04-24 02:39 33.49892 -116.81132 29519 ft 491 kts 91°
2026-04-24 02:39 33.49827 -116.77052 29802 ft 493 kts 91°
2026-04-24 02:39 33.49758 -116.72923 30040 ft 495 kts 91°
2026-04-24 02:40 33.49690 -116.68780 30268 ft 498 kts 91°
2026-04-24 02:40 33.49621 -116.64638 30520 ft 500 kts 91°
2026-04-24 02:40 33.49548 -116.60476 30758 ft 502 kts 91°
2026-04-24 02:40 33.49474 -116.56239 30991 ft 504 kts 91°
2026-04-24 02:41 33.49398 -116.52052 31210 ft 506 kts 91°
2026-04-24 02:41 33.49321 -116.47822 31459 ft 507 kts 91°
2026-04-24 02:41 33.49242 -116.43618 31765 ft 507 kts 91°
2026-04-24 02:41 33.49169 -116.39420 32085 ft 506 kts 91°
2026-04-24 02:42 33.49109 -116.35194 32373 ft 506 kts 91°
2026-04-24 02:42 33.49050 -116.30989 32639 ft 506 kts 92°
2026-04-24 02:42 33.48988 -116.26791 32881 ft 505 kts 92°
2026-04-24 02:42 33.48929 -116.22832 33080 ft 506 kts 92°
2026-04-24 02:43 33.48862 -116.18599 33276 ft 507 kts 92°
2026-04-24 02:43 33.48797 -116.14410 33509 ft 506 kts 91°
2026-04-24 02:43 33.48863 -116.10201 33731 ft 506 kts 87°
2026-04-24 02:43 33.49150 -116.05975 33953 ft 506 kts 83°
2026-04-24 02:44 33.49657 -116.01862 34157 ft 506 kts 78°
2026-04-24 02:44 33.50411 -115.97711 34349 ft 505 kts 74°
2026-04-24 02:44 33.51376 -115.93712 34524 ft 504 kts 70°
2026-04-24 02:44 33.52522 -115.89732 34721 ft 504 kts 68°
2026-04-24 02:45 33.53704 -115.85786 34893 ft 504 kts 68°
2026-04-24 02:45 33.54888 -115.81850 35038 ft 505 kts 68°
2026-04-24 02:45 33.56059 -115.77910 35183 ft 506 kts 68°
2026-04-24 02:45 33.57239 -115.73886 35358 ft 506 kts 68°
2026-04-24 02:46 33.58392 -115.69938 35523 ft 507 kts 68°
2026-04-24 02:46 33.59553 -115.65936 35692 ft 507 kts 68°
2026-04-24 02:46 33.60706 -115.61962 35853 ft 507 kts 68°
2026-04-24 02:46 33.61861 -115.57977 35988 ft 507 kts 69°
2026-04-24 02:47 33.62898 -115.53961 36098 ft 510 kts 73°
2026-04-24 02:47 33.63731 -115.49828 36180 ft 512 kts 77°
2026-04-24 02:47 33.64327 -115.45612 36312 ft 513 kts 82°
2026-04-24 02:47 33.64678 -115.41343 36442 ft 513 kts 86°
2026-04-24 02:48 33.64642 -115.32804 36587 ft 515 kts 96°
2026-04-24 02:48 33.63637 -115.24335 36784 ft 513 kts 104°
2026-04-24 02:49 33.61890 -115.16074 36885 ft 515 kts 106°
2026-04-24 02:49 33.60602 -115.07555 36910 ft 519 kts 98°
2026-04-24 02:50 33.60204 -114.98981 36900 ft 520 kts 92°
2026-04-24 02:50 33.60010 -114.90276 36895 ft 521 kts 92°
2026-04-24 02:51 33.59775 -114.81600 36892 ft 522 kts 92°
2026-04-24 02:51 33.59356 -114.72949 36877 ft 520 kts 97°
2026-04-24 02:52 33.58593 -114.64331 36880 ft 521 kts 97°
2026-04-24 02:52 33.57805 -114.55728 36876 ft 521 kts 97°
2026-04-24 02:53 33.57023 -114.47144 36877 ft 521 kts 97°
2026-04-24 02:53 33.56240 -114.38521 36878 ft 520 kts 97°
2026-04-24 02:54 33.55450 -114.29878 36881 ft 521 kts 98°
2026-04-24 02:54 33.54658 -114.21272 36891 ft 522 kts 98°
2026-04-24 02:55 33.53862 -114.12692 36901 ft 521 kts 98°
2026-04-24 02:55 33.53077 -114.04282 36921 ft 521 kts 98°
2026-04-24 02:56 33.52264 -113.95674 36912 ft 521 kts 98°
2026-04-24 02:56 33.51445 -113.87073 36916 ft 522 kts 98°
2026-04-24 02:57 33.50621 -113.78456 36910 ft 522 kts 98°
2026-04-24 02:57 33.49791 -113.69830 36915 ft 522 kts 98°
2026-04-24 02:58 33.48956 -113.61221 36904 ft 522 kts 98°
2026-04-24 02:58 33.48116 -113.52621 36911 ft 522 kts 98°
2026-04-24 02:59 33.47246 -113.43982 36905 ft 521 kts 100°
2026-04-24 02:59 33.45805 -113.35530 36901 ft 517 kts 108°
2026-04-24 03:00 33.43448 -113.27435 36905 ft 514 kts 118°
2026-04-24 03:00 33.40604 -113.20152 36911 ft 512 kts 121°
2026-04-24 03:01 33.37569 -113.12598 36910 ft 512 kts 120°
2026-04-24 03:01 33.34512 -113.04928 36910 ft 514 kts 120°
2026-04-24 03:02 33.31447 -112.97208 36902 ft 514 kts 120°
2026-04-24 03:02 33.28381 -112.89500 36901 ft 515 kts 120°
2026-04-24 03:03 33.25303 -112.81767 36894 ft 515 kts 120°
2026-04-24 03:03 33.22223 -112.74049 36891 ft 515 kts 120°
2026-04-24 03:04 33.19143 -112.66357 36886 ft 517 kts 121°
2026-04-24 03:04 33.16048 -112.58633 36886 ft 517 kts 120°
2026-04-24 03:05 33.12929 -112.50877 36897 ft 519 kts 120°
2026-04-24 03:05 33.09811 -112.43135 36909 ft 519 kts 120°
2026-04-24 03:06 33.06688 -112.35403 36917 ft 520 kts 120°
2026-04-24 03:06 33.03625 -112.27827 36930 ft 519 kts 121°
2026-04-24 03:07 33.00470 -112.20048 36927 ft 520 kts 121°
2026-04-24 03:07 32.97337 -112.12337 36907 ft 520 kts 121°
2026-04-24 03:08 32.92608 -112.00725 36910 ft 520 kts 121°
2026-04-24 03:09 32.89526 -111.92935 36915 ft 524 kts 117°
2026-04-24 03:09 32.87146 -111.84757 36915 ft 528 kts 108°
2026-04-24 03:10 32.85346 -111.76487 36923 ft 530 kts 107°
2026-04-24 03:10 32.83502 -111.67969 36930 ft 529 kts 107°
2026-04-24 03:11 32.81615 -111.59531 36935 ft 530 kts 108°
2026-04-24 03:11 32.79721 -111.51092 36944 ft 531 kts 108°
2026-04-24 03:12 32.77814 -111.42626 36947 ft 531 kts 108°
2026-04-24 03:12 32.75903 -111.34172 36954 ft 532 kts 108°
2026-04-24 03:13 32.74018 -111.25848 36960 ft 532 kts 108°
2026-04-24 03:13 32.72094 -111.17368 36978 ft 533 kts 108°
2026-04-24 03:14 32.70151 -111.08863 37002 ft 535 kts 108°
2026-04-24 03:14 32.68209 -111.00369 37018 ft 535 kts 108°
2026-04-24 03:15 32.66269 -110.91898 37035 ft 534 kts 108°
2026-04-24 03:15 32.64312 -110.83394 37046 ft 535 kts 109°
2026-04-24 03:16 32.62355 -110.74947 37071 ft 535 kts 108°
2026-04-24 03:16 32.60380 -110.66406 37074 ft 536 kts 109°
2026-04-24 03:17 32.58413 -110.57948 37060 ft 535 kts 109°
2026-04-24 03:17 32.56412 -110.49405 37037 ft 537 kts 109°
2026-04-24 03:18 32.54416 -110.40897 37038 ft 539 kts 108°
2026-04-24 03:18 32.52425 -110.32398 37053 ft 537 kts 109°
2026-04-24 03:19 32.50404 -110.23839 37089 ft 539 kts 110°
2026-04-24 03:19 32.48380 -110.15286 37098 ft 540 kts 110°
2026-04-24 03:20 32.46361 -110.06786 37089 ft 539 kts 110°
2026-04-24 03:20 32.44326 -109.98254 37081 ft 540 kts 110°
2026-04-24 03:21 32.42293 -109.89739 37090 ft 542 kts 110°
2026-04-24 03:21 32.40237 -109.81158 37099 ft 542 kts 110°
2026-04-24 03:22 32.38182 -109.72626 37100 ft 542 kts 110°
2026-04-24 03:22 32.36114 -109.64047 37090 ft 541 kts 110°
2026-04-24 03:23 32.34045 -109.55520 37080 ft 543 kts 110°
2026-04-24 03:23 32.31966 -109.46950 37070 ft 544 kts 110°
2026-04-24 03:24 32.29869 -109.38338 37063 ft 546 kts 110°
2026-04-24 03:24 32.27796 -109.29748 37060 ft 547 kts 109°
2026-04-24 03:25 32.26336 -109.20891 37058 ft 550 kts 99°
2026-04-24 03:25 32.25497 -109.11919 37070 ft 550 kts 98°
2026-04-24 03:26 32.24694 -109.02959 37081 ft 550 kts 99°
2026-04-24 03:26 32.23851 -108.94036 37093 ft 551 kts 99°
2026-04-24 03:27 32.22980 -108.85040 37083 ft 551 kts 99°
2026-04-24 03:27 32.22107 -108.76102 37075 ft 551 kts 99°
2026-04-24 03:28 32.21221 -108.67146 37065 ft 551 kts 99°
2026-04-24 03:28 32.20327 -108.58149 37073 ft 551 kts 99°
2026-04-24 03:29 32.19436 -108.49191 37086 ft 552 kts 99°
2026-04-24 03:29 32.18535 -108.40234 37093 ft 552 kts 99°
2026-04-24 03:30 32.17622 -108.31242 37093 ft 551 kts 100°
2026-04-24 03:30 32.16708 -108.22290 37103 ft 551 kts 99°
2026-04-24 03:31 32.15830 -108.13755 37098 ft 551 kts 100°
2026-04-24 03:31 32.14898 -108.04744 37100 ft 551 kts 99°
2026-04-24 03:32 32.14030 -107.96444 37088 ft 552 kts 100°
2026-04-24 03:32 32.13089 -107.87448 37085 ft 552 kts 99°
2026-04-24 03:33 32.12136 -107.78439 37066 ft 552 kts 99°
2026-04-24 03:33 32.11179 -107.69432 37059 ft 552 kts 99°
2026-04-24 03:34 32.10218 -107.60473 37058 ft 552 kts 99°
2026-04-24 03:34 32.09249 -107.51471 37059 ft 552 kts 99°
2026-04-24 03:35 32.08272 -107.42476 37059 ft 552 kts 99°
2026-04-24 03:35 32.07291 -107.33436 37063 ft 552 kts 101°
2026-04-24 03:36 32.06304 -107.24488 37072 ft 552 kts 100°
2026-04-24 03:36 32.05298 -107.15460 37063 ft 553 kts 100°
2026-04-24 03:37 32.04296 -107.06422 37052 ft 553 kts 100°
2026-04-24 03:37 32.03284 -106.97463 37045 ft 553 kts 100°
2026-04-24 03:38 32.02273 -106.88483 37039 ft 554 kts 101°
2026-04-24 03:38 32.01244 -106.79435 37035 ft 554 kts 100°
2026-04-24 03:39 32.00221 -106.70477 37026 ft 554 kts 100°
2026-04-24 03:39 31.99184 -106.61487 37029 ft 553 kts 100°
2026-04-24 03:40 31.98143 -106.52502 37027 ft 553 kts 101°
2026-04-24 03:40 31.97096 -106.43516 37027 ft 554 kts 100°
2026-04-24 03:41 31.96040 -106.34560 37019 ft 553 kts 101°
2026-04-24 03:41 31.95156 -106.25570 37016 ft 555 kts 95°
2026-04-24 03:42 31.94944 -106.16456 37025 ft 555 kts 92°
2026-04-24 03:42 31.94843 -106.07325 37051 ft 556 kts 91°
2026-04-24 03:43 31.94714 -105.98173 37078 ft 555 kts 92°
2026-04-24 03:43 31.94559 -105.89101 37090 ft 555 kts 92°
2026-04-24 03:44 31.94392 -105.80000 37095 ft 554 kts 92°
2026-04-24 03:44 31.94216 -105.70954 37092 ft 554 kts 92°
2026-04-24 03:45 31.94037 -105.61833 37100 ft 554 kts 91°
2026-04-24 03:45 31.93855 -105.52754 37102 ft 554 kts 91°
2026-04-24 03:46 31.93661 -105.43644 37099 ft 555 kts 92°
2026-04-24 03:46 31.93459 -105.34586 37073 ft 554 kts 93°
2026-04-24 03:47 31.93268 -105.25496 37046 ft 554 kts 92°
2026-04-24 03:47 31.93081 -105.16719 37030 ft 554 kts 92°
2026-04-24 03:48 31.92883 -105.07684 37025 ft 554 kts 92°
2026-04-24 03:48 31.92699 -104.99332 37013 ft 554 kts 92°
2026-04-24 03:49 31.92491 -104.90245 37033 ft 554 kts 92°
2026-04-24 03:49 31.92264 -104.81125 37055 ft 554 kts 93°
2026-04-24 03:50 31.92039 -104.72066 37087 ft 553 kts 92°
2026-04-24 03:50 31.91808 -104.63031 37066 ft 553 kts 92°
2026-04-24 03:51 31.91574 -104.53951 37043 ft 554 kts 92°
2026-04-24 03:51 31.91328 -104.44914 37013 ft 553 kts 92°
2026-04-24 03:52 31.91081 -104.35811 37000 ft 554 kts 91°
2026-04-24 03:52 31.90827 -104.26796 36983 ft 553 kts 94°
2026-04-24 03:53 31.90621 -104.19751 36969 ft 553 kts 92°
2026-04-24 03:53 31.90361 -104.10742 36958 ft 553 kts 94°
2026-04-24 03:54 31.90095 -104.02055 36951 ft 553 kts 93°
2026-04-24 03:54 31.89815 -103.92976 36936 ft 553 kts 93°
2026-04-24 03:55 31.89528 -103.84001 36937 ft 553 kts 93°
2026-04-24 03:55 31.89238 -103.75118 36938 ft 552 kts 92°
2026-04-24 03:56 31.88946 -103.66136 36940 ft 551 kts 92°
2026-04-24 03:56 31.88636 -103.57149 36944 ft 552 kts 92°
2026-04-24 03:57 31.88334 -103.48192 36944 ft 552 kts 93°
2026-04-24 03:57 31.88014 -103.39204 36940 ft 551 kts 92°
2026-04-24 03:58 31.87693 -103.30185 36928 ft 551 kts 92°
2026-04-24 03:58 31.87881 -103.21529 36927 ft 551 kts 83°
2026-04-24 03:59 31.88949 -103.12614 36923 ft 550 kts 79°
2026-04-24 03:59 31.90183 -103.03783 36917 ft 548 kts 78°
2026-04-24 04:00 31.91390 -102.94958 36928 ft 549 kts 78°
2026-04-24 04:00 31.92560 -102.86105 36932 ft 548 kts 78°
2026-04-24 04:01 31.93713 -102.77271 36933 ft 548 kts 79°
2026-04-24 04:01 31.94862 -102.68414 36931 ft 547 kts 78°
2026-04-24 04:02 31.96003 -102.59596 36930 ft 546 kts 78°
2026-04-24 04:02 31.97135 -102.50803 36918 ft 546 kts 78°
2026-04-24 04:03 31.98266 -102.41974 36906 ft 546 kts 79°
2026-04-24 04:03 31.99386 -102.33146 36893 ft 545 kts 79°